Zurück zum Katalog

STARLINK-37235

AktivKommunikationVLEO
NORAD 69154·PAYLOAD·🇺🇸 United States

Gestartet May 21, 2026 von Cape Canaveral Space Force Station

Loading…

Nächste Überflüge (nächste 24 Stunden)

TLE

AktuellSource: CelesTrak SupGP

Epoche: Sep 14, 2026, 21:25 UTC

1 69154C 26111G   26257.89284722 -.00007160  00000+0 -21158-3 0  2572
2 69154  53.1579  92.1485 0000841  92.4048 328.5703 15.34389659    18

Verfolge STARLINK-37235 in Echtzeit mit AllMySat

Download on the App Store